This is the latest recevied weather packets stored in our database for station/object KK4PWJ-13. If no packets are shown the sender has not sent any weather packets the latest 1 day(s).
| Time | Temp. | Humidity | Pressure | Rain* | Wind** | Luminosity | Snow |
|---|---|---|---|---|---|---|---|
| 1778008424 | 27.22° C | 37% | 1013.1 hPa | 0 mm | 0.45 m/s, 124° | 523 W/m² | - |
| 1778008120 | 26.67° C | 39% | 1013.1 hPa | 0 mm | 0.89 m/s, 168° | 554 W/m² | - |
| 1778007815 | 26.67° C | 37% | 1013.1 hPa | 0 mm | 0 m/s | 483 W/m² | - |
| 1778007511 | 27.22° C | 38% | 1013.1 hPa | 0 mm | 0 m/s | 710 W/m² | - |
| 1778007208 | 26.67° C | 37% | 1013.3 hPa | 0 mm | 0.45 m/s, 106° | 661 W/m² | - |
| 1778006904 | 26.67° C | 37% | 1013.3 hPa | 0 mm | 0 m/s | 724 W/m² | - |
| 1778006601 | 26.67° C | 36% | 1013.5 hPa | 0 mm | 1.34 m/s, 273° | 609 W/m² | - |
| 1778006298 | 26.67° C | 34% | 1013.6 hPa | 0 mm | 0.89 m/s, 157° | 512 W/m² | - |
| 1778005995 | 26.67° C | 35% | 1013.5 hPa | 0 mm | 0.45 m/s, 170° | 560 W/m² | - |
| 1778005692 | 26.67° C | 35% | 1013.6 hPa | 0 mm | 1.34 m/s, 142° | 649 W/m² | - |
| 1778005389 | 26.67° C | 34% | 1013.8 hPa | 0 mm | 0.89 m/s, 126° | 774 W/m² | - |
| 1778005085 | 26.67° C | 35% | 1013.6 hPa | 0 mm | 0.89 m/s, 252° | 694 W/m² | - |
| 1778004783 | 27.22° C | 32% | 1013.7 hPa | 0 mm | 2.24 m/s, 172° | 672 W/m² | - |
| 1778004479 | 27.22° C | 32% | 1013.8 hPa | 0 mm | 0.89 m/s, 111° | 856 W/m² | - |
| 1778004175 | 27.78° C | 33% | 1013.7 hPa | 0 mm | 0.45 m/s, 103° | 826 W/m² | - |
| 1778003872 | 27.22° C | 36% | 1014 hPa | 0 mm | 0.45 m/s, 177° | 815 W/m² | - |
| 1778003569 | 27.78° C | 33% | 1013.9 hPa | 0 mm | 0.89 m/s, 143° | 644 W/m² | - |
| 1778003265 | 27.78° C | 33% | 1014 hPa | 0 mm | 0 m/s | 751 W/m² | - |
| 1778002962 | 27.22° C | 33% | 1014.2 hPa | 0 mm | 0.45 m/s, 252° | 792 W/m² | - |
| 1778002658 | 27.22° C | 34% | 1013.9 hPa | 0 mm | 0 m/s | 808 W/m² | - |
| 1778002355 | 26.67° C | 36% | 1014 hPa | 0 mm | 0.45 m/s, 124° | 771 W/m² | - |
| 1778002052 | 26.67° C | 35% | 1014 hPa | 0 mm | 0.89 m/s, 103° | 846 W/m² | - |
| 1778001749 | 26.67° C | 36% | 1014 hPa | 0 mm | 0.45 m/s, 120° | 859 W/m² | - |
| 1778001449 | 26.67° C | 37% | 1014.1 hPa | 0 mm | 0 m/s | 877 W/m² | - |
| 1778001146 | 26.67° C | 34% | 1014.2 hPa | 0 mm | 0.89 m/s, 78° | 858 W/m² | - |
* Rain latest hour (hover to see other rain measurements)
** Current wind speed in m/s (hover to see current wind gust speed)